Location: Nitra
(0.0000°N, 18.0833°E)
Time: 04:03:35
(UTC+01:00)

ARIANE 6 FM1 Upper Stage - Pass Details

Date: 23 January 2026
Orbit: 522 x 609 km, 62.0° (Epoch: 15 February)

Event Time Altitude Azimuth Distance (km) Brightness Sun altitude
Exits shadow 04:47:06 31° 317° (NW) 969 3.4 -17.0°
Maximum altitude 04:48:53 65° 246° (WSW) 613 2.6 -16.6°
Drops below altitude 10° 04:53:04 10° 163° (SSE) 1,870 5.8 -15.6°
Sets 04:55:21 0° 160° (SSE) 2,785 6.8 -15.1°
